Volver al catálogo

LUDI TANCE-4 01A

ActivoCienciaGEO
NORAD 57624·PAYLOAD·🇨🇳 China

Lanzado Aug 12, 2023 desde Xichang Satellite Launch Center

Loading…

TLE

ActualizadoSource: Space-Track

Época: Sep 14, 2026, 19:21 UTC

1 57624U 23120A   26257.80664774 -.00000195  00000-0  00000-0 0  9992
2 57624  15.0481 191.7648 0003535  39.2777 142.5868  1.00276981 11440

Sigue LUDI TANCE-4 01A en tiempo real con AllMySat

Download on the App Store